,,,PA_Meas_PMT16A,,PR_Meas_QMR101_102,,RH_Meas_QMH101,,SR_Meas_QMS101,,TA_Meas_QMH101,,GenWind,,GenWind,
date,time,status,PA,status,PR,status,RH,status,SR,status,TA,status,DirAvg,status,SpdAvg,
2009-03-28, 00:00:04,VALID,1001.64,VALID,0,VALID,89.0224,VALID,0,VALID,24.5813,VALID,147,VALID,0.720312,
2009-03-28, 00:01:04,VALID,1001.62,VALID,0,VALID,89.1368,VALID,0,VALID,24.6008,VALID,117,VALID,0.808203,
2009-03-28, 00:02:04,VALID,1001.63,VALID,0,VALID,89.0148,VALID,0,VALID,24.6027,VALID,117,VALID,0.978125,
2009-03-28, 00:03:04,VALID,1001.59,VALID,0,VALID,88.9537,VALID,0,VALID,24.5794,VALID,107,VALID,0.645703,
2009-03-28, 00:04:04,VALID,1001.55,VALID,0,VALID,88.8622,VALID,0,VALID,24.6008,VALID,85,VALID,1.09883,
2009-03-28, 00:05:04,VALID,1001.54,VALID,0,VALID,89.0682,VALID,0,VALID,24.6008,VALID,78,VALID,1.11523,
2009-03-28, 00:06:04,VALID,1001.54,VALID,0,VALID,89.2589,VALID,0,VALID,24.5422,VALID,75,VALID,1.28203,
2009-03-28, 00:07:04,VALID,1001.51,VALID,0,VALID,89.2894,VALID,0,VALID,24.5032,VALID,74,VALID,1.11836,
2009-03-28, 00:08:04,VALID,1001.5,VALID,0,VALID,89.5489,VALID,0,VALID,24.4837,VALID,63,VALID,1.13398,
2009-03-28, 00:09:04,VALID,1001.47,VALID,0,VALID,89.9227,VALID,0,VALID,24.4233,VALID,65,VALID,0.815625,
2009-03-28, 00:10:04,VALID,1001.44,VALID,0,VALID,89.9074,VALID,0,VALID,24.4233,VALID,63,VALID,0.707031,
2009-03-28, 00:11:04,VALID,1001.45,VALID,0,VALID,90.0371,VALID,0,VALID,24.4251,VALID,61,VALID,0.576953,
2009-03-28, 00:12:04,VALID,1001.41,VALID,0,VALID,89.9914,VALID,0,VALID,24.4037,VALID,61,VALID,0.579687,
2009-03-28, 00:13:04,VALID,1001.38,VALID,0,VALID,89.9227,VALID,0,VALID,24.4233,VALID,62,VALID,0.701953,
2009-03-28, 00:14:04,VALID,1001.37,VALID,0,VALID,89.7014,VALID,0,VALID,24.4233,VALID,68,VALID,0.860156,
2009-03-28, 00:15:04,VALID,1001.35,VALID,0,VALID,89.6786,VALID,0,VALID,24.4642,VALID,67,VALID,1.07773,
2009-03-28, 00:16:04,VALID,1001.31,VALID,0,VALID,89.3428,VALID,0,VALID,24.4837,VALID,70,VALID,1.31289,
2009-03-28, 00:17:04,VALID,1001.33,VALID,0,VALID,89.3123,VALID,0,VALID,24.4837,VALID,61,VALID,0.867578,
2009-03-28, 00:18:04,VALID,1001.27,VALID,0,VALID,89.5946,VALID,0,VALID,24.4642,VALID,92,VALID,1.17109,
2009-03-28, 00:19:04,VALID,1001.27,VALID,0,VALID,89.4802,VALID,0,VALID,24.4446,VALID,86,VALID,0.869531,
2009-03-28, 00:20:04,VALID,1001.23,VALID,0,VALID,89.587,VALID,0,VALID,24.4251,VALID,80,VALID,1.05195,
2009-03-28, 00:21:04,VALID,1001.2,VALID,0,VALID,89.7777,VALID,0,VALID,24.3861,VALID,89,VALID,1.02227,
2009-03-28, 00:22:04,VALID,1001.16,VALID,0,VALID,90.0066,VALID,0,VALID,24.347,VALID,89,VALID,0.612109,
2009-03-28, 00:23:04,VALID,1001.16,VALID,0,VALID,90.2813,VALID,0,VALID,24.308,VALID,93,VALID,0.578516,
2009-03-28, 00:24:04,VALID,1001.11,VALID,0,VALID,90.3271,VALID,0,VALID,24.269,VALID,93,VALID,0.155078,
2009-03-28, 00:25:04,VALID,1001.16,VALID,0,VALID,90.5636,VALID,0,VALID,24.2086,VALID,101,VALID,0.394922,
2009-03-28, 00:26:04,VALID,1001.12,VALID,0,VALID,90.6933,VALID,0,VALID,24.1891,VALID,204,VALID,0.557422,
2009-03-28, 00:27:04,VALID,1001.16,VALID,0,VALID,90.9603,VALID,0,VALID,24.2104,VALID,204,VALID,0.472656,
2009-03-28, 00:28:04,VALID,1001.17,VALID,0,VALID,90.968,VALID,0,VALID,24.2104,VALID,204,VALID,0.217187,
2009-03-28, 00:29:04,VALID,1001.2,VALID,0,VALID,90.8764,VALID,0,VALID,24.2104,VALID,204,VALID,0.00117188,
2009-03-28, 00:30:04,VALID,1001.21,VALID,0,VALID,90.8459,VALID,0,VALID,24.1696,VALID,204,VALID,0.000390625,
2009-03-28, 00:31:04,VALID,1001.22,VALID,0,VALID,90.8764,VALID,0,VALID,24.1909,VALID,204,VALID,0,
2009-03-28, 00:32:04,VALID,1001.21,VALID,0,VALID,90.9069,VALID,0,VALID,24.1519,VALID,204,VALID,0.182812,
2009-03-28, 00:33:04,VALID,1001.22,VALID,0,VALID,90.8993,VALID,0,VALID,24.1305,VALID,204,VALID,0.0449219,
2009-03-28, 00:34:04,VALID,1001.17,VALID,0,VALID,90.9603,VALID,0,VALID,24.1305,VALID,204,VALID,0.342187,
2009-03-28, 00:35:04,VALID,1001.16,VALID,0,VALID,90.9298,VALID,0,VALID,24.1519,VALID,203,VALID,0.245312,
2009-03-28, 00:36:04,VALID,1001.11,VALID,0,VALID,90.9146,VALID,0,VALID,24.1519,VALID,203,VALID,0.192578,
2009-03-28, 00:37:04,VALID,1001.09,VALID,0,VALID,90.9832,VALID,0,VALID,24.111,VALID,203,VALID,0.190234,
2009-03-28, 00:38:04,VALID,1001.07,VALID,0,VALID,91.1587,VALID,0,VALID,24.1128,VALID,120,VALID,0.54375,
2009-03-28, 00:39:04,VALID,1001.04,VALID,0,VALID,91.2121,VALID,0,VALID,24.072,VALID,106,VALID,0.613672,
2009-03-28, 00:40:04,VALID,1001.03,VALID,0,VALID,91.3037,VALID,0,VALID,24.0525,VALID,88,VALID,0.728906,
2009-03-28, 00:41:04,VALID,1001.04,VALID,0,VALID,91.5783,VALID,0,VALID,24.0329,VALID,86,VALID,0.660156,
2009-03-28, 00:42:04,VALID,1001.05,VALID,0,VALID,91.5326,VALID,0,VALID,24.0348,VALID,75,VALID,0.729297,
2009-03-28, 00:43:04,VALID,1001.07,VALID,0,VALID,91.6775,VALID,0,VALID,24.0134,VALID,70,VALID,0.523047,
2009-03-28, 00:44:04,VALID,1001.04,VALID,0,VALID,91.6623,VALID,0,VALID,24.0153,VALID,61,VALID,0.370703,
2009-03-28, 00:45:04,VALID,1001.06,VALID,0,VALID,91.7462,VALID,0,VALID,23.9762,VALID,61,VALID,0.328906,
2009-03-28, 00:46:04,VALID,1001.03,VALID,0,VALID,91.7004,VALID,0,VALID,23.9159,VALID,61,VALID,0.241797,
2009-03-28, 00:47:04,VALID,1001.04,VALID,0,VALID,91.8148,VALID,0,VALID,23.8982,VALID,61,VALID,0.0371094,
2009-03-28, 00:48:04,VALID,1001.03,VALID,0,VALID,91.9369,VALID,0,VALID,23.8591,VALID,61,VALID,0.151562,
2009-03-28, 00:49:04,VALID,1001.01,VALID,0,VALID,92.1887,VALID,0,VALID,23.8378,VALID,61,VALID,0.251953,
2009-03-28, 00:50:04,VALID,1001.02,VALID,0,VALID,92.4176,VALID,0,VALID,23.8183,VALID,61,VALID,0.40625,
2009-03-28, 00:51:04,VALID,1001.03,VALID,0,VALID,92.5473,VALID,0,VALID,23.8201,VALID,61,VALID,0.496094,
2009-03-28, 00:52:04,VALID,1001.01,VALID,0,VALID,92.5015,VALID,0,VALID,23.7793,VALID,61,VALID,0.466016,
2009-03-28, 00:53:04,VALID,1001,VALID,0,VALID,92.6083,VALID,0,VALID,23.7811,VALID,61,VALID,0.603125,
2009-03-28, 00:54:04,VALID,1000.99,VALID,0,VALID,92.6312,VALID,0,VALID,23.7616,VALID,61,VALID,0.557031,
2009-03-28, 00:55:04,VALID,1000.98,VALID,0,VALID,92.6617,VALID,0,VALID,23.742,VALID,61,VALID,0.538672,
2009-03-28, 00:56:04,VALID,1000.93,VALID,0,VALID,92.7685,VALID,0,VALID,23.742,VALID,67,VALID,0.538281,
2009-03-28, 00:57:04,VALID,1000.94,VALID,0,VALID,92.8906,VALID,0,VALID,23.7402,VALID,67,VALID,0.505859,
2009-03-28, 00:58:04,VALID,1000.9,VALID,0,VALID,92.883,VALID,0,VALID,23.7402,VALID,67,VALID,0.576172,
2009-03-28, 00:59:04,VALID,1000.89,VALID,0,VALID,92.7991,VALID,0,VALID,23.7597,VALID,54,VALID,0.608594,
2009-03-28, 01:00:04,VALID,1000.89,VALID,0,VALID,92.7914,VALID,0,VALID,23.7811,VALID,48,VALID,0.741406,
2009-03-28, 01:01:04,VALID,1000.86,VALID,0,VALID,92.7228,VALID,0,VALID,23.7811,VALID,45,VALID,0.871484,
2009-03-28, 01:02:04,VALID,1000.87,VALID,0,VALID,92.8601,VALID,0,VALID,23.7811,VALID,44,VALID,0.974609,
2009-03-28, 01:03:04,VALID,1000.87,VALID,0,VALID,92.9135,VALID,0,VALID,23.7616,VALID,40,VALID,1.0543,
2009-03-28, 01:04:04,VALID,1000.87,VALID,0,VALID,92.7609,VALID,0,VALID,23.742,VALID,39,VALID,0.858984,
2009-03-28, 01:05:04,VALID,1000.86,VALID,0,VALID,92.8372,VALID,0,VALID,23.7012,VALID,37,VALID,0.750781,
2009-03-28, 01:06:04,VALID,1000.85,VALID,0,VALID,92.8372,VALID,0,VALID,23.703,VALID,30,VALID,0.71875,
2009-03-28, 01:07:04,VALID,1000.85,VALID,0,VALID,92.9669,VALID,0,VALID,23.6835,VALID,24,VALID,0.823828,
2009-03-28, 01:08:04,VALID,1000.84,VALID,0,VALID,93.0127,VALID,0,VALID,23.664,VALID,24,VALID,0.754687,
2009-03-28, 01:09:04,VALID,1000.84,VALID,0,VALID,93.15,VALID,0,VALID,23.6232,VALID,24,VALID,0.829687,
2009-03-28, 01:10:04,VALID,1000.83,VALID,0,VALID,93.4628,VALID,0,VALID,23.6427,VALID,29,VALID,1.01094,
2009-03-28, 01:11:04,VALID,1000.83,VALID,0,VALID,93.44,VALID,0,VALID,23.6427,VALID,29,VALID,0.714453,
2009-03-28, 01:12:04,VALID,1000.84,VALID,0,VALID,93.501,VALID,0,VALID,23.6427,VALID,32,VALID,0.753125,
2009-03-28, 01:13:04,VALID,1000.85,VALID,0,VALID,93.4781,VALID,0,VALID,23.6622,VALID,39,VALID,0.760156,
2009-03-28, 01:14:04,VALID,1000.82,VALID,0,VALID,93.5773,VALID,0,VALID,23.6622,VALID,39,VALID,0.582422,
2009-03-28, 01:15:04,VALID,1000.82,VALID,0,VALID,93.5163,VALID,0,VALID,23.6622,VALID,39,VALID,0.439063,
2009-03-28, 01:16:04,VALID,1000.85,VALID,0,VALID,93.6307,VALID,0,VALID,23.703,VALID,39,VALID,0.531641,
2009-03-28, 01:17:04,VALID,1000.86,VALID,0,VALID,93.5391,VALID,0,VALID,23.6817,VALID,39,VALID,0.466016,
2009-03-28, 01:18:04,VALID,1000.86,VALID,0,VALID,93.5239,VALID,0,VALID,23.6817,VALID,39,VALID,0.385156,
2009-03-28, 01:19:04,VALID,1000.82,VALID,0,VALID,93.4781,VALID,0,VALID,23.703,VALID,39,VALID,0.282031,
2009-03-28, 01:20:04,VALID,1000.81,VALID,0,VALID,93.44,VALID,0,VALID,23.6817,VALID,39,VALID,0.219531,
2009-03-28, 01:21:04,VALID,1000.83,VALID,0,VALID,93.3866,VALID,0,VALID,23.6835,VALID,39,VALID,0.188281,
2009-03-28, 01:22:04,VALID,1000.84,VALID,0,VALID,93.4247,VALID,0,VALID,23.6835,VALID,39,VALID,0.174609,
2009-03-28, 01:23:04,VALID,1000.83,VALID,0,VALID,93.5086,VALID,0,VALID,23.6835,VALID,39,VALID,0.227344,
2009-03-28, 01:24:04,VALID,1000.82,VALID,0,VALID,93.6078,VALID,0,VALID,23.6622,VALID,39,VALID,0.3125,
2009-03-28, 01:25:04,VALID,1000.85,VALID,0,VALID,93.6688,VALID,0,VALID,23.6817,VALID,39,VALID,0.319141,
2009-03-28, 01:26:04,VALID,1000.84,VALID,0,VALID,93.5926,VALID,0,VALID,23.6835,VALID,39,VALID,0.416406,
2009-03-28, 01:27:04,VALID,1000.83,VALID,0,VALID,93.3637,VALID,0,VALID,23.6835,VALID,39,VALID,0.400781,
2009-03-28, 01:28:04,VALID,1000.8,VALID,0,VALID,93.295,VALID,0,VALID,23.6232,VALID,39,VALID,0.167578,
2009-03-28, 01:29:04,VALID,1000.77,VALID,0,VALID,93.5163,VALID,0,VALID,23.6054,VALID,39,VALID,0.284766,
2009-03-28, 01:30:04,VALID,1000.73,VALID,0,VALID,93.5468,VALID,0,VALID,23.5841,VALID,39,VALID,0.216406,
2009-03-28, 01:31:04,VALID,1000.7,VALID,0,VALID,93.6841,VALID,0,VALID,23.6054,VALID,39,VALID,0.170312,
2009-03-28, 01:32:04,VALID,1000.7,VALID,0,VALID,93.646,VALID,0,VALID,23.5859,VALID,39,VALID,0.120312,
2009-03-28, 01:33:04,VALID,1000.7,VALID,0,VALID,93.6688,VALID,0,VALID,23.5841,VALID,39,VALID,0.194141,
2009-03-28, 01:34:04,VALID,1000.67,VALID,0,VALID,93.7985,VALID,0,VALID,23.5859,VALID,39,VALID,0.183984,
2009-03-28, 01:35:04,VALID,1000.65,VALID,0,VALID,93.7528,VALID,0,VALID,23.5859,VALID,39,VALID,0.391016,
2009-03-28, 01:36:04,VALID,1000.67,VALID,0,VALID,93.7223,VALID,0,VALID,23.5859,VALID,82,VALID,0.7375,
2009-03-28, 01:37:04,VALID,1000.67,VALID,0,VALID,93.5697,VALID,0,VALID,23.5859,VALID,92,VALID,0.935938,
2009-03-28, 01:38:04,VALID,1000.68,VALID,0,VALID,93.562,VALID,0,VALID,23.5859,VALID,96,VALID,1.02383,
2009-03-28, 01:39:04,VALID,1000.68,VALID,0,VALID,93.5086,VALID,0,VALID,23.5841,VALID,111,VALID,0.908594,
2009-03-28, 01:40:04,VALID,1000.68,VALID,0,VALID,93.44,VALID,0,VALID,23.5646,VALID,110,VALID,0.872266,
2009-03-28, 01:41:04,VALID,1000.67,VALID,0,VALID,93.3942,VALID,0,VALID,23.5859,VALID,110,VALID,0.675,
2009-03-28, 01:42:04,VALID,1000.68,VALID,0,VALID,93.3713,VALID,0,VALID,23.5859,VALID,110,VALID,0.337891,
2009-03-28, 01:43:04,VALID,1000.68,VALID,0,VALID,93.3713,VALID,0,VALID,23.5664,VALID,104,VALID,0.447266,
2009-03-28, 01:44:04,VALID,1000.66,VALID,0,VALID,93.2416,VALID,0,VALID,23.5664,VALID,104,VALID,0.382422,
2009-03-28, 01:45:04,VALID,1000.68,VALID,0,VALID,93.2721,VALID,0,VALID,23.5469,VALID,104,VALID,0.400391,
2009-03-28, 01:46:04,VALID,1000.65,VALID,0,VALID,93.1805,VALID,0,VALID,23.5469,VALID,77,VALID,0.607422,
2009-03-28, 01:47:04,VALID,1000.69,VALID,0,VALID,93.0661,VALID,0,VALID,23.5079,VALID,71,VALID,0.771094,
2009-03-28, 01:48:04,VALID,1000.65,VALID,0,VALID,93.0966,VALID,0,VALID,23.4884,VALID,66,VALID,0.849609,
2009-03-28, 01:49:04,VALID,1000.64,VALID,0,VALID,93.1653,VALID,0,VALID,23.4671,VALID,49,VALID,1.06172,
2009-03-28, 01:50:04,VALID,1000.66,VALID,0,VALID,92.9898,VALID,0,VALID,23.4475,VALID,47,VALID,0.742578,
2009-03-28, 01:51:04,VALID,1000.61,VALID,0,VALID,93.2492,VALID,0,VALID,23.4884,VALID,43,VALID,0.967188,
2009-03-28, 01:52:04,VALID,1000.63,VALID,0,VALID,93.0737,VALID,0,VALID,23.4671,VALID,43,VALID,0.819922,
2009-03-28, 01:53:04,VALID,1000.66,VALID,0,VALID,93.028,VALID,0,VALID,23.4493,VALID,47,VALID,0.648438,
2009-03-28, 01:54:04,VALID,1000.6,VALID,0,VALID,92.9898,VALID,0,VALID,23.4298,VALID,46,VALID,0.483203,
2009-03-28, 01:55:04,VALID,1000.61,VALID,0,VALID,92.8754,VALID,0,VALID,23.4103,VALID,36,VALID,0.467969,
2009-03-28, 01:56:04,VALID,1000.61,VALID,0,VALID,92.9364,VALID,0,VALID,23.3713,VALID,36,VALID,0.507422,
2009-03-28, 01:57:04,VALID,1000.62,VALID,0,VALID,93.0356,VALID,0,VALID,23.311,VALID,30,VALID,0.559766,
2009-03-28, 01:58:04,VALID,1000.63,VALID,0,VALID,93.2263,VALID,0,VALID,23.2915,VALID,24,VALID,0.652344,
2009-03-28, 01:59:04,VALID,1000.61,VALID,0,VALID,93.4323,VALID,0,VALID,23.3323,VALID,13,VALID,0.607422,
2009-03-28, 02:00:04,VALID,1000.6,VALID,0,VALID,93.2645,VALID,0,VALID,23.3127,VALID,14,VALID,0.570313,
2009-03-28, 02:01:04,VALID,1000.58,VALID,0,VALID,93.3408,VALID,0,VALID,23.3127,VALID,14,VALID,0.500781,
2009-03-28, 02:02:04,VALID,1000.56,VALID,0,VALID,93.356,VALID,0,VALID,23.3127,VALID,14,VALID,0.454688,
2009-03-28, 02:03:04,VALID,1000.53,VALID,0,VALID,93.4247,VALID,0,VALID,23.3127,VALID,14,VALID,0.280859,
2009-03-28, 02:04:04,VALID,1000.54,VALID,0,VALID,93.4094,VALID,0,VALID,23.3127,VALID,14,VALID,0.233203,
2009-03-28, 02:05:04,VALID,1000.54,VALID,0,VALID,93.3103,VALID,0,VALID,23.2932,VALID,14,VALID,0.262109,
2009-03-28, 02:06:04,VALID,1000.57,VALID,0,VALID,93.3789,VALID,0,VALID,23.2719,VALID,14,VALID,0.327344,
2009-03-28, 02:07:04,VALID,1000.56,VALID,0,VALID,93.5315,VALID,0,VALID,23.2932,VALID,14,VALID,0.527344,
2009-03-28, 02:08:04,VALID,1000.56,VALID,0,VALID,93.3789,VALID,0,VALID,23.3127,VALID,108,VALID,0.5875,
2009-03-28, 02:09:04,VALID,1000.59,VALID,0,VALID,93.4857,VALID,0,VALID,23.311,VALID,116,VALID,0.647656,
2009-03-28, 02:10:04,VALID,1000.59,VALID,0,VALID,93.5849,VALID,0,VALID,23.3695,VALID,129,VALID,1.13711,
2009-03-28, 02:11:04,VALID,1000.59,VALID,0,VALID,93.501,VALID,0,VALID,23.4298,VALID,113,VALID,0.696094,
2009-03-28, 02:12:04,VALID,1000.57,VALID,0,VALID,93.234,VALID,0,VALID,23.428,VALID,114,VALID,0.499609,
2009-03-28, 02:13:04,VALID,1000.59,VALID,0,VALID,93.0814,VALID,0,VALID,23.4475,VALID,112,VALID,0.371484,
2009-03-28, 02:14:04,VALID,1000.59,VALID,0,VALID,92.9974,VALID,0,VALID,23.4493,VALID,113,VALID,0.484766,
2009-03-28, 02:15:04,VALID,1000.59,VALID,0,VALID,93.0051,VALID,0,VALID,23.4688,VALID,111,VALID,0.251563,
2009-03-28, 02:16:04,VALID,1000.58,VALID,0,VALID,92.9898,VALID,0,VALID,23.4298,VALID,111,VALID,0,
2009-03-28, 02:17:04,VALID,1000.6,VALID,0,VALID,92.8601,VALID,0,VALID,23.4103,VALID,111,VALID,0,
2009-03-28, 02:18:04,VALID,1000.58,VALID,0,VALID,92.8372,VALID,0,VALID,23.3908,VALID,111,VALID,0,
2009-03-28, 02:19:04,VALID,1000.56,VALID,0,VALID,92.9211,VALID,0,VALID,23.3713,VALID,111,VALID,0,
2009-03-28, 02:20:04,VALID,1000.55,VALID,0,VALID,92.9288,VALID,0,VALID,23.35,VALID,111,VALID,0,
2009-03-28, 02:21:04,VALID,1000.53,VALID,0,VALID,92.9593,VALID,0,VALID,23.3323,VALID,111,VALID,0,
2009-03-28, 02:22:04,VALID,1000.57,VALID,0,VALID,93.1424,VALID,0,VALID,23.2915,VALID,111,VALID,0.401953,
2009-03-28, 02:23:04,VALID,1000.53,VALID,0,VALID,93.1882,VALID,0,VALID,23.3323,VALID,111,VALID,0.108984,
2009-03-28, 02:24:04,VALID,1000.57,VALID,0,VALID,93.1271,VALID,0,VALID,23.3518,VALID,124,VALID,0.406641,
2009-03-28, 02:25:04,VALID,1000.58,VALID,0,VALID,93.0585,VALID,0,VALID,23.3127,VALID,122,VALID,0.655078,
2009-03-28, 02:26:04,VALID,1000.58,VALID,0,VALID,92.9745,VALID,0,VALID,23.311,VALID,115,VALID,0.382031,
2009-03-28, 02:27:04,VALID,1000.59,VALID,0,VALID,92.9288,VALID,0,VALID,23.3323,VALID,114,VALID,0.492969,
2009-03-28, 02:28:04,VALID,1000.6,VALID,0,VALID,92.8983,VALID,0,VALID,23.2915,VALID,112,VALID,0.553125,
2009-03-28, 02:29:04,VALID,1000.59,VALID,0,VALID,92.8601,VALID,0,VALID,23.3127,VALID,106,VALID,0.5875,
2009-03-28, 02:30:04,VALID,1000.59,VALID,0,VALID,92.8143,VALID,0,VALID,23.3323,VALID,90,VALID,0.563672,
2009-03-28, 02:31:04,VALID,1000.59,VALID,0,VALID,92.7533,VALID,0,VALID,23.3518,VALID,93,VALID,0.585547,
2009-03-28, 02:32:04,VALID,1000.59,VALID,0,VALID,92.6999,VALID,0,VALID,23.311,VALID,91,VALID,0.641016,
2009-03-28, 02:33:04,VALID,1000.6,VALID,0,VALID,92.6541,VALID,0,VALID,23.3518,VALID,86,VALID,0.51875,
2009-03-28, 02:34:04,VALID,1000.59,VALID,0,VALID,92.5702,VALID,0,VALID,23.3127,VALID,78,VALID,0.599219,
2009-03-28, 02:35:04,VALID,1000.6,VALID,0,VALID,92.5473,VALID,0,VALID,23.3127,VALID,68,VALID,0.362891,
2009-03-28, 02:36:04,VALID,1000.56,VALID,0,VALID,92.616,VALID,0,VALID,23.2915,VALID,100,VALID,0.660547,
2009-03-28, 02:37:04,VALID,1000.56,VALID,0,VALID,92.41,VALID,0,VALID,23.2719,VALID,117,VALID,0.707812,
2009-03-28, 02:38:04,VALID,1000.57,VALID,0,VALID,92.3413,VALID,0,VALID,23.2932,VALID,115,VALID,0.779688,
2009-03-28, 02:39:04,VALID,1000.57,VALID,0,VALID,92.12,VALID,0,VALID,23.2719,VALID,117,VALID,0.558203,
2009-03-28, 02:40:04,VALID,1000.6,VALID,0,VALID,91.8911,VALID,0,VALID,23.3127,VALID,131,VALID,0.756641,
2009-03-28, 02:41:04,VALID,1000.6,VALID,0,VALID,91.6775,VALID,0,VALID,23.3323,VALID,113,VALID,0.247266,
2009-03-28, 02:42:04,VALID,1000.6,VALID,0,VALID,91.3723,VALID,0,VALID,23.3323,VALID,126,VALID,1.0875,
2009-03-28, 02:43:04,VALID,1000.63,VALID,0,VALID,91.0061,VALID,0,VALID,23.3518,VALID,117,VALID,1.35586,
2009-03-28, 02:44:04,VALID,1000.61,VALID,0,VALID,90.8611,VALID,0,VALID,23.3713,VALID,111,VALID,0.933984,
2009-03-28, 02:45:04,VALID,1000.63,VALID,0,VALID,90.7772,VALID,0,VALID,23.3695,VALID,110,VALID,0.890234,
2009-03-28, 02:46:04,VALID,1000.63,VALID,0,VALID,90.823,VALID,0,VALID,23.35,VALID,105,VALID,0.552734,
2009-03-28, 02:47:04,VALID,1000.65,VALID,0,VALID,90.9146,VALID,0,VALID,23.3695,VALID,83,VALID,0.537109,
2009-03-28, 02:48:04,VALID,1000.69,VALID,0,VALID,90.8383,VALID,0,VALID,23.3713,VALID,82,VALID,0.474219,
2009-03-28, 02:49:04,VALID,1000.67,VALID,0,VALID,90.8154,VALID,0,VALID,23.3323,VALID,47,VALID,0.457422,
2009-03-28, 02:50:04,VALID,1000.69,VALID,0,VALID,90.9985,VALID,0,VALID,23.3127,VALID,51,VALID,0.452734,
2009-03-28, 02:51:04,VALID,1000.7,VALID,0,VALID,91.3037,VALID,0,VALID,23.2719,VALID,51,VALID,0.417969,
2009-03-28, 02:52:04,VALID,1000.69,VALID,0,VALID,91.3037,VALID,0,VALID,23.2524,VALID,51,VALID,0.225,
2009-03-28, 02:53:04,VALID,1000.69,VALID,0,VALID,91.4181,VALID,0,VALID,23.2542,VALID,51,VALID,0.382813,
2009-03-28, 02:54:04,VALID,1000.66,VALID,0,VALID,91.708,VALID,0,VALID,23.2737,VALID,51,VALID,0.345703,
2009-03-28, 02:55:04,VALID,1000.63,VALID,0,VALID,91.792,VALID,0,VALID,23.2932,VALID,57,VALID,0.495703,
2009-03-28, 02:56:04,VALID,1000.61,VALID,0,VALID,91.6546,VALID,0,VALID,23.2915,VALID,86,VALID,0.749609,
2009-03-28, 02:57:04,VALID,1000.59,VALID,0,VALID,91.4791,VALID,0,VALID,23.3323,VALID,107,VALID,0.595703,
2009-03-28, 02:58:04,VALID,1000.59,VALID,0,VALID,91.296,VALID,0,VALID,23.3518,VALID,88,VALID,0.698047,
2009-03-28, 02:59:04,VALID,1000.57,VALID,0,VALID,91.174,VALID,0,VALID,23.3518,VALID,113,VALID,0.686328,
2009-03-28, 03:00:04,VALID,1000.61,VALID,0,VALID,91.1968,VALID,0,VALID,23.3518,VALID,108,VALID,0.710156,
2009-03-28, 03:01:04,VALID,1000.6,VALID,0,VALID,91.1511,VALID,0,VALID,23.3908,VALID,96,VALID,0.978906,
2009-03-28, 03:02:04,VALID,1000.62,VALID,0,VALID,90.8764,VALID,0,VALID,23.4103,VALID,97,VALID,0.899219,
2009-03-28, 03:03:04,VALID,1000.6,VALID,0,VALID,90.8688,VALID,0,VALID,23.4103,VALID,96,VALID,0.905859,
2009-03-28, 03:04:04,VALID,1000.61,VALID,0,VALID,90.8001,VALID,0,VALID,23.4298,VALID,84,VALID,1.05352,
2009-03-28, 03:05:04,VALID,1000.61,VALID,0,VALID,90.6094,VALID,0,VALID,23.4103,VALID,89,VALID,0.677734,
2009-03-28, 03:06:04,VALID,1000.6,VALID,0,VALID,90.8611,VALID,0,VALID,23.4103,VALID,93,VALID,0.928125,
2009-03-28, 03:07:04,VALID,1000.65,VALID,0,VALID,90.9146,VALID,0,VALID,23.3908,VALID,95,VALID,0.730078,
2009-03-28, 03:08:04,VALID,1000.63,VALID,0,VALID,90.7925,VALID,0,VALID,23.3713,VALID,89,VALID,0.678516,
2009-03-28, 03:09:04,VALID,1000.62,VALID,0,VALID,90.8611,VALID,0,VALID,23.3518,VALID,77,VALID,0.713672,
2009-03-28, 03:10:04,VALID,1000.63,VALID,0,VALID,90.8764,VALID,0,VALID,23.3518,VALID,77,VALID,0.905859,
2009-03-28, 03:11:04,VALID,1000.6,VALID,0,VALID,90.9146,VALID,0,VALID,23.3518,VALID,71,VALID,0.637109,
2009-03-28, 03:12:04,VALID,1000.63,VALID,0,VALID,90.8306,VALID,0,VALID,23.3127,VALID,71,VALID,0.380078,
2009-03-28, 03:13:04,VALID,1000.62,VALID,0,VALID,91.0519,VALID,0,VALID,23.2932,VALID,70,VALID,0.419922,
2009-03-28, 03:14:04,VALID,1000.65,VALID,0,VALID,91.3723,VALID,0,VALID,23.2542,VALID,70,VALID,0.278125,
2009-03-28, 03:15:04,VALID,1000.64,VALID,0,VALID,91.5936,VALID,0,VALID,23.2347,VALID,70,VALID,0.223047,
2009-03-28, 03:16:04,VALID,1000.66,VALID,0,VALID,91.6165,VALID,0,VALID,23.1762,VALID,70,VALID,0,
2009-03-28, 03:17:04,VALID,1000.65,VALID,0,VALID,91.8911,VALID,0,VALID,23.1371,VALID,70,VALID,0.0601562,
2009-03-28, 03:18:04,VALID,1000.66,VALID,0,VALID,92.2574,VALID,0,VALID,23.1176,VALID,70,VALID,0.0371094,
2009-03-28, 03:19:04,VALID,1000.65,VALID,0,VALID,92.4252,VALID,0,VALID,23.1176,VALID,70,VALID,0.00351562,
2009-03-28, 03:20:04,VALID,1000.67,VALID,0,VALID,92.5778,VALID,0,VALID,23.0981,VALID,70,VALID,0.220703,
2009-03-28, 03:21:04,VALID,1000.65,VALID,0,VALID,92.738,VALID,0,VALID,23.0786,VALID,70,VALID,0.175391,
2009-03-28, 03:22:04,VALID,1000.62,VALID,0,VALID,92.8983,VALID,0,VALID,23.0786,VALID,70,VALID,0.289844,
2009-03-28, 03:23:04,VALID,1000.65,VALID,0,VALID,93.0661,VALID,0,VALID,23.0573,VALID,71,VALID,0.00976563,
2009-03-28, 03:24:04,VALID,1000.66,VALID,0,VALID,93.028,VALID,0,VALID,23.0981,VALID,70,VALID,0.00585938,
2009-03-28, 03:25:04,VALID,1000.64,VALID,0,VALID,92.8906,VALID,0,VALID,23.0573,VALID,71,VALID,0,
2009-03-28, 03:26:04,VALID,1000.65,VALID,0,VALID,92.8677,VALID,0,VALID,23.0786,VALID,70,VALID,0,
2009-03-28, 03:27:04,VALID,1000.67,VALID,0,VALID,92.8677,VALID,0,VALID,23.0591,VALID,71,VALID,0.000390625,
2009-03-28, 03:28:04,VALID,1000.67,VALID,0,VALID,92.9211,VALID,0,VALID,23.0591,VALID,71,VALID,0.187109,
2009-03-28, 03:29:04,VALID,1000.66,VALID,0,VALID,92.8525,VALID,0,VALID,23.0396,VALID,71,VALID,0.333203,
2009-03-28, 03:30:04,VALID,1000.65,VALID,0,VALID,92.6388,VALID,0,VALID,23.0591,VALID,177,VALID,0.500781,
2009-03-28, 03:31:04,VALID,1000.64,VALID,0,VALID,92.4176,VALID,0,VALID,23.0786,VALID,177,VALID,0.595312,
2009-03-28, 03:32:04,VALID,1000.64,VALID,0,VALID,92.0361,VALID,0,VALID,23.0573,VALID,176,VALID,0.753125,
2009-03-28, 03:33:04,VALID,1000.65,VALID,0,VALID,91.3952,VALID,0,VALID,23.1176,VALID,171,VALID,0.923828,
2009-03-28, 03:34:04,VALID,1000.67,VALID,0,VALID,90.9374,VALID,0,VALID,23.1566,VALID,174,VALID,0.726563,
2009-03-28, 03:35:04,VALID,1000.69,VALID,0,VALID,90.678,VALID,0,VALID,23.1744,VALID,175,VALID,0.660937,
2009-03-28, 03:36:04,VALID,1000.71,VALID,0,VALID,90.0524,VALID,0,VALID,23.2152,VALID,186,VALID,0.738672,
2009-03-28, 03:37:04,VALID,1000.72,VALID,0,VALID,89.4115,VALID,0,VALID,23.2542,VALID,182,VALID,0.65,
2009-03-28, 03:38:04,VALID,1000.73,VALID,0,VALID,88.5646,VALID,0,VALID,23.3127,VALID,160,VALID,1.09531,
2009-03-28, 03:39:04,VALID,1000.75,VALID,0,VALID,88.0763,VALID,0,VALID,23.3518,VALID,150,VALID,0.8875,
2009-03-28, 03:40:04,VALID,1000.79,VALID,0,VALID,87.9543,VALID,0,VALID,23.3713,VALID,145,VALID,0.675,
2009-03-28, 03:41:04,VALID,1000.76,VALID,0,VALID,87.939,VALID,0,VALID,23.3908,VALID,155,VALID,0.871875,
2009-03-28, 03:42:04,VALID,1000.8,VALID,0,VALID,87.9543,VALID,0,VALID,23.3908,VALID,157,VALID,0.771484,
2009-03-28, 03:43:04,VALID,1000.75,VALID,0,VALID,87.9237,VALID,0,VALID,23.3908,VALID,145,VALID,1.05,
2009-03-28, 03:44:04,VALID,1000.78,VALID,0,VALID,87.9924,VALID,0,VALID,23.3908,VALID,156,VALID,1.08555,
2009-03-28, 03:45:04,VALID,1000.79,VALID,0,VALID,88.0687,VALID,0,VALID,23.3713,VALID,161,VALID,0.938281,
2009-03-28, 03:46:04,VALID,1000.77,VALID,0,VALID,88.084,VALID,0,VALID,23.311,VALID,166,VALID,1.28906,